This is the latest recevied weather packets stored in our database for station/object EA1CUE-WX. If no packets are shown the sender has not sent any weather packets the latest 10 day(s).
| Time | Temp. | Humidity | Pressure | Rain* | Wind** | Luminosity | Snow |
|---|---|---|---|---|---|---|---|
| 1787605129 | 16.11° C | 1% | 1012.5 hPa | 0 mm | - | - | - |
| 1787604829 | 16.11° C | 1% | 1012.4 hPa | 0 mm | - | - | - |
| 1787604529 | 16.11° C | 1% | 1012.4 hPa | 0 mm | - | - | - |
| 1787604230 | 16.11° C | 1% | 1012.3 hPa | 0 mm | - | - | - |
| 1787603929 | 16.11° C | 1% | 1012.2 hPa | 0 mm | - | - | - |
| 1787603629 | 16.11° C | 1% | 1012.1 hPa | 0 mm | - | - | - |
| 1787603329 | 16.11° C | 1% | 1012 hPa | 0 mm | - | - | - |
| 1787603029 | 16.11° C | 1% | 1011.9 hPa | 0 mm | - | - | - |
| 1787602729 | 16.11° C | 1% | 1011.8 hPa | 0 mm | - | - | - |
| 1787601529 | 16.11° C | 1% | 1011.3 hPa | 0 mm | - | - | - |
| 1787601229 | 16.11° C | 1% | 1011.1 hPa | 0.25 mm | - | - | - |
| 1787600929 | 16.67° C | 1% | 1011 hPa | 0.76 mm | - | - | - |
| 1787600629 | 16.67° C | 1% | 1010.9 hPa | 0.76 mm | - | - | - |
| 1787600329 | 16.67° C | 1% | 1010.8 hPa | 0.76 mm | - | - | - |
| 1787600029 | 16.67° C | 1% | 1010.6 hPa | 1.27 mm | - | - | - |
| 1787599729 | 16.67° C | 1% | 1010.5 hPa | 1.52 mm | - | - | - |
| 1787599429 | 16.67° C | 1% | 1010.3 hPa | 1.52 mm | - | - | - |
| 1787599129 | 16.67° C | 1% | 1010.1 hPa | 1.52 mm | - | - | - |
| 1787598829 | 16.67° C | 1% | 1010 hPa | 1.52 mm | - | - | - |
| 1787598529 | 16.67° C | 1% | 1009.9 hPa | 1.78 mm | - | - | - |
| 1787598229 | 16.67° C | 1% | 1009.8 hPa | 1.78 mm | - | - | - |
| 1787597929 | 16.67° C | 1% | 1009.7 hPa | 1.78 mm | - | - | - |
| 1787597629 | 16.67° C | 1% | 1009.6 hPa | 1.78 mm | - | - | - |
| 1787597329 | 16.67° C | 1% | 1009.6 hPa | 1.52 mm | - | - | - |
| 1787597029 | 16.67° C | 1% | 1009.3 hPa | 1.27 mm | - | - | - |
* Rain latest hour (hover to see other rain measurements)
** Current wind speed in m/s (hover to see current wind gust speed)